WA4ORT Weather Reports


time (UTC)temp
C
wind
direction
speed
KPH
gust
KPH
rain 1hr
cm
rain 24hr
cm
rain mn
cm
humidity
%
barometer
mb
20260505070130 15 201 3.2 4.8 0.00 0.00 0.00
20260505064635 15 146 3.2 1.6 0.00 0.00 0.00
20260505063140 -17 146 1367.9 0.0 0.00 0.00 0.00
20260505063136 15 197 3.2 4.8 0.00 0.00 0.00
20260505061642 15 136 3.2 1.6 0.00 0.00 0.00
20260505060147 15 198 3.2 3.2 0.00 0.00 0.00
20260505054652 -17 146 1367.9 0.0 0.00 0.00 0.00
20260505054648 15 172 4.8 3.2 0.00 0.00 0.00
20260505053224 13 100 1.6 4.8 0.00 0.00 0.00
20260505053153 13 100 1.6 4.8 0.00 0.00 0.00
20260505051659 12 98 0.0 0.0 0.00 0.00 0.00
20260505050204 -17 146 1367.9 0.0 0.00 0.00 0.00
20260505050200 13 98 0.0 0.0 0.00 0.00 0.00
20260505041716 -17 146 1367.9 0.0 0.00 0.00 0.00
20260505041712 13 98 0.0 0.0 0.00 0.00 0.00
20260505040217 14 98 0.0 0.0 0.00 0.00 0.00
20260505034722 14 98 0.0 0.0 0.00 0.00 0.00
20260505033228 -17 146 1367.9 0.0 0.00 0.00 0.00
20260505033224 14 98 0.0 0.0 0.00 0.00 0.00
20260505031729 15 98 0.0 0.0 0.00 0.00 0.00
20260505030235 15 98 0.0 0.0 0.00 0.00 0.00
20260505024740 -17 146 1367.9 0.0 0.00 0.00 0.00
20260505024736 15 98 0.0 0.0 0.00 0.00 0.00
20260505023242 15 98 0.0 0.0 0.00 0.00 0.00
20260505021747 16 98 0.0 0.0 0.00 0.00 0.00
20260505020252 -17 146 1367.9 0.0 0.00 0.00 0.00
20260505020248 16 98 0.0 0.0 0.00 0.00 0.00
20260505014754 16 98 0.0 0.0 0.00 0.00 0.00
20260505013259 17 98 0.0 0.0 0.00 0.00 0.00
20260505011804 -17 146 1367.9 0.0 0.00 0.00 0.00
20260505011801 17 98 0.0 0.0 0.00 0.00 0.00
20260505010306 18 98 0.0 0.0 0.00 0.00 0.00
20260505004811 19 98 0.0 0.0 0.00 0.00 0.00
20260505003317 -17 146 1367.9 0.0 0.00 0.00 0.00
20260505003313 20 98 0.0 0.0 0.00 0.00 0.00
20260505001819 21 98 0.0 0.0 0.00 0.00 0.00
20260505000324 22 117 1.6 0.0 0.00 0.00 0.00
20260504234830 -17 146 1367.9 0.0 0.00 0.00 0.00
20260504234826 22 115 1.6 1.6 0.00 0.00 0.00
20260504233331 23 124 1.6 1.6 0.00 0.00 0.00
20260504231836 24 177 0.0 0.0 0.00 0.00 0.00
20260504230342 -17 146 1367.9 0.0 0.00 0.00 0.00
20260504230338 23 114 0.0 0.0 0.00 0.00 0.00
20260504224843 23 167 1.6 3.2 0.00 0.00 0.00
20260504223349 23 167 3.2 3.2 0.00 0.00 0.00
20260504221854 -17 146 1367.9 0.0 0.00 0.00 0.00
20260504221850 25 190 8.0 8.0 0.00 0.00 0.00
20260504220356 25 170 3.2 3.2 0.00 0.00 0.00
20260504214901 25 195 3.2 4.8 0.00 0.00 0.00
20260504213406 -17 146 1367.9 0.0 0.00 0.00 0.00
20260504213403 25 153 3.2 1.6 0.00 0.00 0.00
20260504211908 25 200 3.2 8.0 0.00 0.00 0.00
20260504210414 25 194 6.4 6.4 0.00 0.00 0.00
20260504204919 -17 146 1367.9 0.0 0.00 0.00 0.00
20260504204915 25 160 0.0 0.0 0.00 0.00 0.00
20260504203421 25 75 3.2 0.0 0.00 0.00 0.00
20260504201926 24 200 4.8 9.7 0.00 0.00 0.00
20260504200431 -17 146 1367.9 0.0 0.00 0.00 0.00
20260504200428 24 207 4.8 4.8 0.00 0.00 0.00
20260504194933 25 269 1.6 4.8 0.00 0.00 0.00
20260504193439 24 180 3.2 9.7 0.00 0.00 0.00
20260504191944 -17 146 1367.9 0.0 0.00 0.00 0.00
20260504191940 24 170 4.8 4.8 0.00 0.00 0.00
20260504190446 24 138 4.8 0.0 0.00 0.00 0.00
20260504184951 23 300 1.6 1.6 0.00 0.00 0.00
20260504183456 -17 146 1367.9 0.0 0.00 0.00 0.00
20260504183453 23 184 4.8 3.2 0.00 0.00 0.00
20260504181958 23 264 4.8 0.0 0.00 0.00 0.00
20260504180504 23 49 6.4 3.2 0.00 0.00 0.00
20260504175009 -17 146 1367.9 0.0 0.00 0.00 0.00
20260504175005 22 323 3.2 3.2 0.00 0.00 0.00
20260504173511 23 257 6.4 6.4 0.00 0.00 0.00
20260504172016 22 308 4.8 4.8 0.00 0.00 0.00
20260504170521 -17 146 1367.9 0.0 0.00 0.00 0.00
20260504170518 21 359 9.7 12.9 0.00 0.00 0.00
20260504150553 20 321 9.7 3.2 0.00 0.00 0.00
20260504140610 -17 146 1367.9 0.0 0.00 0.00 0.00
20260504140606 18 44 0.0 0.0 0.00 0.00 0.00
20260504130624 15 318 0.0 0.0 0.00 0.00 0.00
20260504110657 -17 146 1367.9 0.0 0.00 0.00 0.00
20260504110654 7 318 0.0 0.0 0.00 0.00 0.00
20260504080744 -17 146 1367.9 0.0 0.00 0.00 0.00
20260504080740 8 203 0.0 0.0 0.00 0.00 0.00